Weather Roundup
Issued by NWS Chicago, IL

Home | Current Version | Previous Version | Graphics & Text | Print | Product List | Glossary On
Versions: 1 2 3 4 5 6 7 8 9 10 11 12 13 14 15 16 17 18 19 20 21 22 23 24 25 26 27 28 29 30 31 32 33 34 35 36 37 38 39 40 41 42 43 44 45 46 47 48 49 50
000
NZUS59 KLOT 012202
HRRLOT

CHICAGO AREA WEATHER ROUNDUP
NATIONAL WEATHER SERVICE CHICAGO/ROMEOVILLE IL
500 PM CDT SAT AUG 01 2015

NOTE: "FAIR" INDICATES FEW OR NO CLOUDS BELOW 12,000 FEET WITH NO
SIGNIFICANT WEATHER AND/OR OBSTRUCTIONS TO VISIBILITY.

* THESE STATIONS ARE NOT UNDER NWS QUALITY CONTROL. THEY ALSO MAY NOT
  REPORT WEATHER SUCH AS PRECIPITATION OR FOG.

ILZ005-006-012>014-019>023-012300-
NORTHEAST ILLINOIS

CITY           SKY/WX    TMP DP  RH WIND       PRES   REMARKS
OHARE          PTSUNNY   85  59  41 W14G24    29.91F HX  84
MIDWAY         PTSUNNY   87  57  35 SW15G25   29.91F HX  86
AURORA         PTSUNNY   84  60  44 SW13      29.93F HX  84
WAUKEGAN       MOSUNNY   84  59  42 SW9G18    29.89F HX  84
DUPAGE AIRPORT MOSUNNY   83  60  45 SW17      29.92F HX  83
WHEELING       MOSUNNY   86  57  37 W14G20    29.92F HX  85
NORTHERLY IS     N/A     85  53  33 W14         N/A  HX  83
$$

WIZ051-052-058>065-066-070>072-012300-
SOUTHEAST WISCONSIN

CITY           SKY/WX    TMP DP  RH WIND       PRES   REMARKS
MILWAUKEE      MOSUNNY   85  56  37 W13       29.89F HX  84
KENOSHA*       PTSUNNY   83  62  49 W10       29.90F HX  84
RACINE*        PTSUNNY   80  57  45 SE8       29.91F HX  80
WAUKESHA       MOSUNNY   81  55  41 W12       29.92F HX  80
$$

INZ001>003-010>013-019-020-012300-
NORTHWEST INDIANA

CITY           SKY/WX    TMP DP  RH WIND       PRES   REMARKS
GARY*          PTSUNNY   86  57  37 W16G26    29.92F HX  85
MICHIGAN CITY* NOT AVBL
RENSSELAER*    NOT AVBL
$$

LMZ740>746-012300-
SOUTHERN LAKE MICHIGAN

STATION/POSITION TIME  SKY/WX   TEMP WIND        PRES    VSBY
                                AIR  DIR/SP/G
                 (UTC)          (F)  (DEG/KT/KT) (MB)    (MI)
HARRISON CRIB    2100            77  130/  5/ 11   N/A
BURNHAM HARBOR   2200            85  270/  8/ 17   N/A
CALUMET HARBOR   2100            85  230/  7/ 13   N/A
BURNS HARBOR     2100            80  340/  2/  3 1013.5F
MICHIGAN CITY    2100            78   10/  3/  3   N/A
$$

ABBREVIATIONS USED IN REMARKS
   TC - TEMPERATURE IN CELSIUS
  WCI - WIND CHILL INDEX
   HX - HEAT INDEX
  VSB - VISIBILITY
$$


USA.gov is the U.S. government's official web portal to all federal, state and local government web resources and services.